Location: Altoona
(40.5167°N, 78.4000°W)
Time: 09:46:00
(UTC-04:00)

Daily predictions for brighter satellites

Satellite Brightness Start Highest point End
(mag) Time Altitude Azimuth Time Altitude Azimuth Time Altitude Azimuth
ATLAS 2AS CENTAUR R/B 4.4 21:10:49 10° NW 21:17:42 34° WSW 21:24:06 10° S
NOSS 3-4 (A) 4.0 21:14:17 10° NNW 21:21:18 66° NE 21:28:46 10° SE
NOSS 3-4 (C) 4.0 21:14:23 10° NNW 21:21:25 66° NE 21:28:52 10° SE
Cosmos 676 Rocket 4.0 21:16:24 10° SSW 21:21:39 83° ESE 21:26:53 10° NNE
Cosmos 1934 Rocket 4.2 21:15:51 10° N 21:22:02 80° W 21:28:06 10° S
CZ-4B DEB 2.7 21:21:26 10° SSE 21:24:21 57° ENE 21:27:18 10° N
Cosmos 1184 Rocket 3.2 21:24:18 10° S 21:27:30 44° E 21:30:44 10° NNE
SAR-Lupe-4 3.6 21:24:32 10° SSE 21:28:04 65° ENE 21:31:38 10° N
Cosmos 1605 Rocket 4.0 21:24:07 10° N 21:30:24 83° E 21:36:43 10° S
Cosmos 1939 Rocket 3.1 21:30:26 10° S 21:34:23 70° WSW 21:38:26 10° NNW
Cosmos 2082 3.8 21:29:47 10° SSW 21:35:24 86° WNW 21:41:05 10° NNE
Aureole 2 Rocket 3.5 21:35:41 10° NNW 21:39:42 52° WSW 21:43:27 10° S
Cosmos 2297 Rocket 2.4 21:37:25 10° SSW 21:43:04 80° WNW 21:48:45 10° NNE
Cosmos 1842 Rocket 3.9 21:40:00 10° NNW 21:44:23 69° W 21:48:42 10° S
Meteor 1-29 3.2 21:41:07 10° N 21:44:32 74° WNW 21:47:57 10° SSW
Cosmos 2084 4.0 21:42:29 10° S 21:46:05 31° ESE 21:49:32 10° NE
Meteor 2-15 Rocket 4.4 21:40:25 10° S 21:46:28 82° E 21:52:33 10° N
Envisat 4.0 21:42:05 10° S 21:46:56 45° W 21:51:49 10° NNW
SAR-Lupe-1 4.1 21:43:47 10° SSE 21:47:22 82° WSW 21:50:59 10° NNW
Cosmos 1727 Rocket 4.1 21:41:12 10° S 21:47:30 90° W 21:53:54 10° N
Helios 1A 3.8 21:44:09 10° S 21:48:10 49° W 21:52:12 10° NNW
Cosmos 1340 Rocket 2.8 21:45:51 10° S 21:49:50 84° E 21:53:55 10° N
Helios 1B rocket 3.3 21:47:39 10° N 21:51:42 52° WNW 21:55:43 10° SSW
Cosmos 1242 Rocket 3.5 21:50:12 10° N 21:53:36 33° ENE 21:56:01 16° SE
USA 32 4.1 21:49:24 10° S 21:54:38 87° W 21:59:55 10° N
Terra 3.8 21:53:24 10° E 21:56:07 15° ENE 21:58:50 10° NNE
Cosmos 1570 Rocket 4.3 21:52:43 10° N 21:57:57 55° ENE 22:02:04 16° SE
MetOp-B 4.2 21:56:50 13° SSE 22:01:41 70° ENE 22:07:02 10° N
Cosmos 1140 Rocket 4.0 21:56:39 10° SSW 22:01:47 64° WNW 22:06:55 10° NNE
Cosmos 1867 3.7 22:01:59 10° SSW 22:07:14 54° ESE 22:12:34 10° NE
ATLAS 5 CENTAUR R/B 1.7 22:02:49 10° SSW 22:07:24 77° ESE 22:12:26 10° NE
Atlas Centaur 2 2.7 22:07:01 10° SW 22:09:18 16° S 22:09:45 16° S
Lacrosse 4 Rocket 3.8 22:05:51 10° WSW 22:09:31 28° NW 22:13:16 10° N
Cosmos 1408 Rocket 4.0 22:07:48 18° SSE 22:10:37 40° E 22:14:40 10° NNE
Cosmos 2237 Rocket 3.4 22:06:42 10° NW 22:11:49 37° WSW 22:16:54 10° S
Tiangong 1 0.8 22:12:49 10° W 22:15:36 77° NNW 22:18:08 12° ENE
Cosmos 1726 3.2 22:14:57 10° NNE 22:18:14 29° ENE 22:19:32 23° ESE
Cosmos 2016 Rocket 4.2 22:12:06 10° N 22:18:16 55° E 22:22:32 20° SSE
YAOGAN 6 4.4 22:15:18 10° SSW 22:18:26 28° W 22:21:37 10° NW
Cosmos 1076 Rocket 3.5 22:16:28 10° S 22:20:48 89° E 22:25:12 10° N
Milstar 3 Cent rocket 4.3 22:14:14 10° WSW 22:21:30 37° S 22:31:25 17° SE
Okean 3 Rocket 4.1 22:18:27 10° SSW 22:22:55 62° W 22:27:23 10° N
Cosmos 2227 Rocket 4.3 22:21:42 10° WSW 22:26:33 29° WNW 22:31:28 10° N
SL-08 RB Rocket 3.7 22:24:04 22° SSE 22:27:00 78° ENE 22:31:36 10° N
Cosmos 1850 Rocket 4.4 22:24:10 10° SSW 22:29:17 64° WNW 22:34:27 10° NNE
Cosmos 1908 3.4 22:25:35 10° NNW 22:29:28 68° W 22:31:56 21° S
Cosmos 1356 Rocket 3.5 22:25:40 11° SSW 22:29:42 79° W 22:34:00 10° N
Cosmos 2221 3.3 22:27:28 10° NNW 22:31:42 49° W 22:35:20 14° SSW
Cosmos 1674 3.2 22:29:46 11° SSW 22:33:21 58° W 22:37:05 10° N
SL-16 R/B 2.6 22:29:06 10° NNW 22:34:40 58° WSW 22:38:38 19° S
H-2A R/B 2.1 22:31:57 23° SSE 22:35:15 73° ENE 22:40:39 10° N
Cosmos 468 Rocket 4.3 22:31:53 10° N 22:36:55 53° ENE 22:39:27 27° SE
YAOGAN 11 4.4 22:34:30 21° S 22:37:26 69° WSW 22:41:58 10° NNW
CARTOSAT-1 4.4 22:38:35 27° ESE 22:40:12 37° ENE 22:44:10 10° N
KORONAS-FOTON 3.9 22:37:55 20° SSW 22:40:29 74° W 22:44:17 10° N
USA 234 3.5 22:35:33 10° NE 22:42:05 75° NW 22:48:36 10° WSW
SPOT 5 3.1 22:39:45 21° S 22:42:53 65° WSW 22:47:53 10° NNW
ARGOS 3.5 22:39:06 18° S 22:43:07 63° WSW 22:48:30 10° NNW
Cosmos 1818 3.8 22:38:53 10° NW 22:44:16 64° WSW 22:47:13 27° SSE
USA 245 3.6 22:42:55 28° SSW 22:44:17 48° W 22:47:58 10° NNW
Cosmos 1766 Rocket 3.6 22:41:51 18° SSW 22:45:01 75° W 22:49:23 10° N
Cosmos 2151 4.0 22:45:29 27° ESE 22:46:08 29° E 22:49:50 10° NNE
ERS-1 Rocket 4.4 22:41:46 10° SSW 22:46:16 33° W 22:50:49 10° NNW
Lacrosse 5 2.6 22:43:19 10° NW 22:48:11 46° NE 22:51:06 22° ESE
Cosmos 2228 Rocket 3.4 22:45:47 10° N 22:50:19 56° E 22:51:56 36° SE
Cosmos 1328 Rocket 3.5 22:51:03 10° N 22:55:24 69° E 22:56:48 41° SSE
Cosmos 2061 Rocket 4.5 22:49:53 10° NNW 22:56:08 60° W 23:01:00 17° SSW
Cosmos 1515 Rocket 3.8 22:53:26 10° N 22:57:41 51° E 22:58:48 40° SE
RESURS DK-1 2.5 22:55:22 10° NNW 22:59:30 64° ENE 23:00:38 44° SE
Cosmos 1743 Rocket 3.4 23:00:07 40° S 23:01:37 74° E 23:05:57 10° NNE
H-2A R/B 2.5 23:00:30 38° ESE 23:01:42 49° ENE 23:05:50 10° N
Cosmos 371 Rocket 3.5 22:58:00 10° NNW 23:02:47 59° ENE 23:04:22 39° SE
Meteor 2-2 Rocket 4.3 22:58:15 10° N 23:04:02 87° W 23:07:00 31° S
Abrixas rocket 4.1 23:01:12 10° NW 23:04:03 27° NNE 23:05:44 18° ENE
DMSP B5D2-2 4.0 22:59:12 10° NNE 23:04:28 88° ESE 23:07:30 26° SSW
Cosmos 2227 4.4 23:01:40 10° SSW 23:07:23 73° WNW 23:13:07 10° NNE
Cosmos 2123 Rocket 4.0 23:05:26 21° SSW 23:09:46 78° W 23:16:00 10° N
EO 1 Delta rocket 4.4 23:08:12 26° SSW 23:10:41 54° W 23:15:13 10° NNW
Cosmos 1151 Rocket 3.2 23:06:49 10° N 23:11:09 56° E 23:12:01 46° ESE
CZ-4B R/B 4.0 23:08:00 10° NNE 23:13:02 42° E 23:14:03 38° SE
CZ-2C R/B 4.5 23:11:39 10° ENE 23:14:18 14° E 23:14:18 14° E
Cosmos 1356 3.7 23:17:20 53° ENE 23:17:20 53° ENE 23:20:27 10° NNE
Landsat 7 4.1 23:16:33 35° SSW 23:18:23 59° W 23:23:06 10° NNW
SL-14 R/B 3.8 23:19:16 34° SW 23:20:42 54° W 23:24:35 10° N
PSLV R/B 4.1 23:23:59 39° NNE 23:23:59 39° NNE 23:26:02 10° N
Cosmos 1328 4.5 23:22:19 33° SW 23:23:47 51° W 23:27:44 10° N
SL-19 R/B 4.1 23:19:42 10° NNE 23:25:03 84° ESE 23:27:22 36° S
CZ-4 R/B 3.8 23:20:29 10° NNE 23:25:21 68° ESE 23:26:26 51° SSE
IGS 5A 3.6 23:26:45 53° SSW 23:27:32 67° WSW 23:31:42 10° NNW
DELTA 2 DEB (DPAF) 4.4 23:30:21 47° ESE 23:31:01 52° ENE 23:35:23 10° N
Terra 2.1 23:31:59 42° SSW 23:33:20 60° W 23:38:03 10° NNW
Cosmos 1814 Rocket 4.2 23:28:06 10° NNW 23:33:25 67° WSW 23:34:58 45° S
Cosmos 1725 Rocket 4.5 23:27:37 10° NNW 23:33:42 55° W 23:36:52 28° SSW
Cosmos 1486 Rocket 4.0 23:33:16 35° SSW 23:35:34 80° WNW 23:40:54 10° NNE
ERBS 3.1 23:32:20 10° NNW 23:35:29 44° NE 23:35:29 44° NE
CZ-4C R/B 4.0 23:37:46 15° E 23:37:46 15° E 23:39:37 10° ENE
Cosmos 1300 4.1 23:35:36 10° NNW 23:38:59 30° W 23:39:44 28° WSW
Cosmos 2263 Rocket 2.0 23:38:53 46° S 23:40:32 75° ESE 23:46:07 10° NNE
Cosmos 1626 2.2 23:46:13 73° NW 23:46:13 73° NW 23:49:48 10° N
deb Chang Zheng 4 3.9 23:41:45 10° N 23:46:04 63° WNW 23:47:09 46° SW
ALOS 2 4.3 23:45:40 20° ENE 23:46:15 21° ENE 23:49:31 10° NNE
Cosmos 841 Rocket 3.4 23:43:40 10° NNW 23:48:57 80° WSW 23:49:58 58° S
Tiangong 1 3.6 23:48:37 10° WNW 23:49:18 16° WNW 23:49:18 16° WNW
Sich 1 4.0 23:53:19 35° ENE 23:53:19 35° ENE 23:56:42 10° NNE
Spot 4 3.8 23:52:27 60° SSW 23:53:15 75° WSW 23:58:08 10° NNW
Cosmos 1763 Rocket 3.7 23:48:16 10° NNW 23:53:17 55° WSW 23:54:12 48° SW
